When you browse on this site, cookies collect data to enhance your experience and personalize the content and advertising you see.
Visit our Privacy Policy to learn more. By continuing to use the site, you agree to this use of cookies and data.
  • en Suisse
  • Liste des pays
  • À 7 jours
  • Température de l'eau
  • Carte météo
  • Widgets météo
  • user-avatar
    Se connecter

    Météo par heure à Rennes

    Ce jour, 25 Mai, Lundi

    Heure Température Précipitation Vent Pression Humidité
    00:00 +10°C° 0 mm 3 m/s 772 mmHg 87%
    01:00 +9°C° 0 mm 3 m/s 772 mmHg 88%
    02:00 +9°C° 0 mm 3 m/s 772 mmHg 89%
    03:00 +9°C° 0 mm 3 m/s 772 mmHg 90%
    04:00 +9°C° 0 mm 3 m/s 772 mmHg 88%
    05:00 +10°C° 0 mm 3 m/s 772 mmHg 86%
    06:00 +12°C° 0 mm 2 m/s 772 mmHg 84%
    07:00 +13°C° 0 mm 3 m/s 772 mmHg 79%
    08:00 +16°C° 0 mm 3 m/s 772 mmHg 73%
    09:00 +18°C° 0 mm 3 m/s 772 mmHg 68%
    10:00 +19°C° 0 mm 3 m/s 772 mmHg 65%
    11:00 +21°C° 0 mm 3 m/s 772 mmHg 62%
    12:00 +22°C° 0 mm 3 m/s 772 mmHg 60%
    13:00 +22°C° 0 mm 3 m/s 772 mmHg 61%
    14:00 +22°C° 0 mm 4 m/s 771 mmHg 62%
    15:00 +22°C° 0 mm 4 m/s 771 mmHg 63%
    16:00 +21°C° 0 mm 4 m/s 771 mmHg 68%
    17:00 +20°C° 0 mm 4 m/s 771 mmHg 73%
    18:00 +19°C° 0 mm 5 m/s 771 mmHg 78%
    19:00 +18°C° 0 mm 4 m/s 771 mmHg 83%
    20:00 +15°C° 0 mm 4 m/s 772 mmHg 88%
    21:00 +14°C° 0 mm 3 m/s 772 mmHg 93%
    22:00 +13°C° 0 mm 3 m/s 772 mmHg 93%
    23:00 +13°C° 0 mm 3 m/s 772 mmHg 94%

    Demain, 26 Mai, Mardi

    Heure Température Précipitation Vent Pression Humidité
    00:00 +12°C° 0 mm 3 m/s 772 mmHg 94%
    01:00 +12°C° 0 mm 3 m/s 772 mmHg 94%
    02:00 +12°C° 0 mm 3 m/s 772 mmHg 94%
    03:00 +12°C° 0 mm 2 m/s 772 mmHg 94%
    04:00 +13°C° 0 mm 2 m/s 772 mmHg 92%
    05:00 +13°C° 0 mm 3 m/s 772 mmHg 90%
    06:00 +13°C° 0 mm 3 m/s 772 mmHg 88%
    07:00 +16°C° 0 mm 3 m/s 772 mmHg 82%
    08:00 +18°C° 0 mm 3 m/s 773 mmHg 76%
    09:00 +20°C° 0 mm 4 m/s 773 mmHg 69%
    10:00 +21°C° 0 mm 4 m/s 773 mmHg 66%
    11:00 +22°C° 0 mm 4 m/s 772 mmHg 63%
    12:00 +23°C° 0 mm 4 m/s 772 mmHg 59%
    13:00 +23°C° 0 mm 4 m/s 772 mmHg 60%
    14:00 +23°C° 0 mm 5 m/s 772 mmHg 60%
    15:00 +23°C° 0 mm 5 m/s 772 mmHg 61%
    16:00 +23°C° 0 mm 4 m/s 771 mmHg 66%
    17:00 +22°C° 0 mm 4 m/s 771 mmHg 71%
    18:00 +21°C° 0 mm 4 m/s 771 mmHg 76%
    19:00 +19°C° 0 mm 4 m/s 771 mmHg 80%
    20:00 +18°C° 0 mm 4 m/s 772 mmHg 85%
    21:00 +15°C° 0 mm 4 m/s 772 mmHg 89%
    22:00 +14°C° 0 mm 3 m/s 772 mmHg 88%
    23:00 +13°C° 0 mm 3 m/s 772 mmHg 86%

    Après-demain, 27 Mai, Mercredi

    Heure Température Précipitation Vent Pression Humidité
    00:00 +12°C° 0 mm 3 m/s 772 mmHg 85%
    01:00 +12°C° 0 mm 3 m/s 772 mmHg 86%
    02:00 +12°C° 0 mm 3 m/s 772 mmHg 88%
    03:00 +11°C° 0 mm 3 m/s 772 mmHg 89%
    04:00 +12°C° 0 mm 3 m/s 772 mmHg 88%
    05:00 +13°C° 0 mm 3 m/s 772 mmHg 87%
    06:00 +14°C° 0 mm 3 m/s 771 mmHg 86%
    07:00 +17°C° 0 mm 3 m/s 772 mmHg 81%
    08:00 +19°C° 0 mm 4 m/s 772 mmHg 75%
    09:00 +21°C° 0 mm 4 m/s 772 mmHg 70%
    10:00 +22°C° 0 mm 4 m/s 771 mmHg 67%
    11:00 +22°C° 0 mm 4 m/s 771 mmHg 64%
    12:00 +23°C° 0 mm 5 m/s 771 mmHg 61%
    13:00 +23°C° 0 mm 5 m/s 771 mmHg 63%
    14:00 +23°C° 0 mm 5 m/s 771 mmHg 65%
    15:00 +23°C° 0 mm 5 m/s 770 mmHg 66%
    16:00 +23°C° 0.1 mm 5 m/s 770 mmHg 70%
    17:00 +22°C° 0.1 mm 4 m/s 770 mmHg 74%
    18:00 +22°C° 0.1 mm 4 m/s 770 mmHg 77%
    19:00 +20°C° 0 mm 4 m/s 770 mmHg 82%
    20:00 +18°C° 0 mm 4 m/s 770 mmHg 86%
    21:00 +17°C° 0 mm 4 m/s 770 mmHg 91%
    22:00 +15°C° 0 mm 4 m/s 770 mmHg 92%
    23:00 +15°C° 0 mm 4 m/s 770 mmHg 93%

    28 Mai, Jeudi

    Heure Température Précipitation Vent Pression Humidité
    00:00 +14°C° 0 mm 4 m/s 770 mmHg 95%
    01:00 +14°C° 0 mm 4 m/s 770 mmHg 95%
    02:00 +13°C° 0 mm 4 m/s 769 mmHg 94%
    03:00 +13°C° 0 mm 4 m/s 769 mmHg 94%
    04:00 +13°C° 0 mm 4 m/s 769 mmHg 91%
    05:00 +13°C° 0 mm 4 m/s 769 mmHg 88%
    06:00 +14°C° 0 mm 4 m/s 769 mmHg 85%
    07:00 +15°C° 0 mm 4 m/s 769 mmHg 80%
    08:00 +17°C° 0 mm 5 m/s 768 mmHg 75%
    09:00 +20°C° 0 mm 5 m/s 768 mmHg 70%
    10:00 +21°C° 0 mm 5 m/s 768 mmHg 68%
    11:00 +22°C° 0 mm 5 m/s 767 mmHg 66%
    12:00 +23°C° 0 mm 5 m/s 767 mmHg 64%
    13:00 +23°C° 0 mm 5 m/s 767 mmHg 64%
    14:00 +25°C° 0 mm 5 m/s 766 mmHg 64%
    15:00 +25°C° 0 mm 5 m/s 766 mmHg 64%
    16:00 +23°C° 0 mm 5 m/s 766 mmHg 68%
    17:00 +22°C° 0 mm 5 m/s 765 mmHg 71%
    18:00 +22°C° 0 mm 5 m/s 765 mmHg 75%
    19:00 +20°C° 0 mm 5 m/s 765 mmHg 75%
    20:00 +17°C° 0 mm 5 m/s 766 mmHg 75%
    21:00 +15°C° 0 mm 5 m/s 766 mmHg 76%
    22:00 +14°C° 0 mm 4 m/s 766 mmHg 76%
    23:00 +13°C° 0 mm 4 m/s 766 mmHg 76%

    29 Mai, Vendredi

    Heure Température Précipitation Vent Pression Humidité
    00:00 +12°C° 0 mm 4 m/s 766 mmHg 76%
    01:00 +11°C° 0 mm 4 m/s 765 mmHg 76%
    02:00 +10°C° 0 mm 4 m/s 765 mmHg 75%
    03:00 +10°C° 0 mm 4 m/s 765 mmHg 75%
    04:00 +10°C° 0 mm 4 m/s 764 mmHg 75%
    05:00 +11°C° 0 mm 4 m/s 764 mmHg 75%
    06:00 +11°C° 0 mm 4 m/s 764 mmHg 76%
    07:00 +13°C° 0 mm 4 m/s 764 mmHg 72%
    08:00 +15°C° 0 mm 5 m/s 764 mmHg 67%
    09:00 +17°C° 0 mm 5 m/s 764 mmHg 63%
    10:00 +19°C° 0 mm 5 m/s 763 mmHg 61%
    11:00 +20°C° 0 mm 5 m/s 763 mmHg 58%
    12:00 +21°C° 0 mm 5 m/s 763 mmHg 55%
    13:00 +21°C° 0 mm 5 m/s 763 mmHg 55%
    14:00 +22°C° 0 mm 4 m/s 762 mmHg 55%
    15:00 +22°C° 0 mm 4 m/s 762 mmHg 55%
    16:00 +22°C° 0 mm 4 m/s 762 mmHg 61%
    17:00 +21°C° 0 mm 3 m/s 762 mmHg 66%
    18:00 +20°C° 0 mm 3 m/s 762 mmHg 71%
    19:00 +18°C° 0 mm 3 m/s 762 mmHg 73%
    20:00 +16°C° 0 mm 3 m/s 762 mmHg 76%
    21:00 +13°C° 0 mm 3 m/s 762 mmHg 79%
    22:00 +13°C° 0 mm 3 m/s 762 mmHg 79%
    23:00 +12°C° 0 mm 3 m/s 762 mmHg 80%

    30 Mai, Samedi

    Heure Température Précipitation Vent Pression Humidité
    00:00 +11°C° 0 mm 3 m/s 762 mmHg 81%
    01:00 +10°C° 0 mm 3 m/s 762 mmHg 81%
    02:00 +10°C° 0 mm 3 m/s 762 mmHg 81%
    03:00 +9°C° 0 mm 3 m/s 762 mmHg 82%
    04:00 +10°C° 0 mm 3 m/s 762 mmHg 80%
    05:00 +11°C° 0 mm 3 m/s 762 mmHg 79%
    06:00 +11°C° 0 mm 3 m/s 762 mmHg 77%
    07:00 +13°C° 0 mm 3 m/s 762 mmHg 74%
    08:00 +15°C° 0 mm 4 m/s 762 mmHg 70%
    09:00 +18°C° 0 mm 4 m/s 762 mmHg 66%
    10:00 +19°C° 0 mm 4 m/s 762 mmHg 63%
    11:00 +20°C° 0 mm 4 m/s 762 mmHg 60%
    12:00 +21°C° 0 mm 5 m/s 762 mmHg 56%
    13:00 +22°C° 0 mm 5 m/s 761 mmHg 56%
    14:00 +22°C° 0 mm 5 m/s 761 mmHg 57%
    15:00 +22°C° 0 mm 5 m/s 761 mmHg 57%
    16:00 +21°C° 0 mm 4 m/s 761 mmHg 61%
    17:00 +21°C° 0 mm 4 m/s 761 mmHg 66%
    18:00 +20°C° 0 mm 3 m/s 760 mmHg 71%
    19:00 +18°C° 0 mm 3 m/s 761 mmHg 73%
    20:00 +16°C° 0 mm 3 m/s 761 mmHg 75%
    21:00 +13°C° 0 mm 3 m/s 761 mmHg 77%
    22:00 +12°C° 0 mm 3 m/s 761 mmHg 80%
    23:00 +12°C° 0 mm 3 m/s 761 mmHg 83%
    Voir plus